Regional Weather Roundup
Issued by NWS

Home | Current Version | Previous Version | Graphics & Text | Print | Product List | Glossary On
Versions: 1 2 3 4 5 6 7 8 9 10 11 12 13 14 15 16 17 18 19 20 21 22 23 24 25 26 27 28 29 30 31 32 33 34 35 36 37 38 39 40 41 42 43 44 45 46 47 48 49 50
000
ASUS43 KLMK 181710
RWRKY
KENTUCKY REGIONAL WEATHER ROUNDUP
NATIONAL WEATHER SERVICE LOUISVILLE KY
100 PM EDT SAT APR 18 2015

NOTE "FAIR" INDICATES FEW OR NO CLOUDS BELOW 12,000 FEET
WITH NO SIGNIFICANT WEATHER AND/OR OBSTRUCTIONS TO VISIBILITY.

KYZ001>023-026-027-061>063-070>075-181800-
WESTERN AND SOUTH CENTRAL KENTUCKY

CITY           SKY/WX    TMP DP  RH WIND       PRES   REMARKS
PADUCAH        MOSUNNY   75  60  59 SE7       29.99F
HENDERSON      PTSUNNY   75  57  53 E7        30.00F
OWENSBORO      PTSUNNY   77  58  51 SE6       30.02S
HOPKINSVILLE   MOSUNNY   74  61  64 SE8       29.99F
BOWLING GREEN  PTSUNNY   76  60  57 VRB7      30.01F
GLASGOW        PTSUNNY   74  56  53 E8        30.00F
$$

KYZ024-025-028>034-038-045-046-053-181800-
NORTH CENTRAL KENTUCKY

CITY           SKY/WX    TMP DP  RH WIND       PRES   REMARKS
LOUISVILLE/SDF CLOUDY    76  45  33 E7        30.02F
LOUISVILLE/LOU MOSUNNY   75  46  35 E8        30.03F
FORT KNOX      PTSUNNY   75  54  48 VRB5      30.01S
$$

KYZ035>037-039>044-047>052-055>060-089>105-181800-
NORTHEAST KENTUCKY

CITY           SKY/WX    TMP DP  RH WIND       PRES   REMARKS
LEXINGTON      MOSUNNY   75  49  39 NE8       30.03F
COVINGTON      CLOUDY    73  47  39 E8        30.05F
FRANKFORT      MOSUNNY   74  45  35 E8        30.02F
$$

KYZ054-064>069-076>088-106>120-181800-
SOUTHEAST KENTUCKY

CITY           SKY/WX    TMP DP  RH WIND       PRES   REMARKS
JACKSON        CLOUDY    75  52  44 CALM      30.02F
LONDON         PTSUNNY   77  51  40 E9G21     30.01F
SOMERSET       MOSUNNY   73  54  49 E3        30.01F
MIDDLESBORO    PTSUNNY   76  57  52 CALM      30.00F
MONTICELLO     CLOUDY    76  61  59 VRB7      30.03F
$$



USA.gov is the U.S. government's official web portal to all federal, state and local government web resources and services.